SA3PJN-WX Weather Reports


time (UTC)temp
F
wind
direction
speed
knots
gust
knots
rain 1hr
in
rain 24hr
in
rain mn
in
humidity
%
barometer
mb
20260507103040 50 340 2.6 10.4 0.00 0.00 0.00 42 971.4
20260507102510 53 116 2.6 9.6 0.00 0.00 0.00 42 971.4
20260507101940 53 132 3.5 9.6 0.00 0.00 0.00 43 971.4
20260507101440 54 101 2.6 8.7 0.00 0.00 0.00 41 971.3
20260507100940 54 122 2.6 7.8 0.00 0.00 0.00 44 971.6
20260507100440 53 169 2.6 9.6 0.00 0.00 0.00 45 971.7
20260507095940 53 113 3.5 9.6 0.00 0.00 0.00 44 971.3
20260507095440 52 173 3.5 9.6 0.00 0.00 0.00 46 971.3
20260507094910 53 198 2.6 7.0 0.00 0.00 0.00 44 971.2
20260507094409 53 179 2.6 9.6 0.00 0.00 0.00 46 971.6
20260507093840 52 168 2.6 9.6 0.00 0.00 0.00 47 971.5
20260507093339 52 217 2.6 7.0 0.00 0.00 0.00 45 971.3
20260507092839 52 189 2.6 7.8 0.00 0.00 0.00 46 971.6
20260507092310 52 200 2.6 7.8 0.00 0.00 0.00 46 971.5
20260507091809 51 145 2.6 12.2 0.00 0.00 0.00 50 971.5
20260507091309 51 264 3.5 12.2 0.00 0.00 0.00 53 971.5
20260507090809 50 95 2.6 9.6 0.00 0.00 0.00 48 971.2
20260507090309 52 144 2.6 7.8 0.00 0.00 0.00 50 971.4
20260507085809 51 243 2.6 8.7 0.00 0.00 0.00 53 971.5
20260507085309 50 153 2.6 10.4 0.00 0.00 0.00 52 971.3
20260507084809 50 183 2.6 10.4 0.00 0.00 0.00 53 971.3
20260507084309 51 173 2.6 8.7 0.00 0.00 0.00 52 971.4
20260507083809 51 99 2.6 8.7 0.00 0.00 0.00 53 971.2
20260507083309 50 139 3.5 8.7 0.00 0.00 0.00 54 971.2
20260507082809 49 151 2.6 8.7 0.00 0.00 0.00 56 971.1
20260507082309 50 135 2.6 7.8 0.00 0.00 0.00 55 971.2
20260507081809 50 158 2.6 10.4 0.00 0.00 0.00 57 971.1
20260507081309 49 144 2.6 10.4 0.00 0.00 0.00 57 971.1
20260507080739 49 110 2.6 10.4 0.00 0.00 0.00 57 971.1
20260507080239 49 132 2.6 7.8 0.00 0.00 0.00 56 971.1
20260507075709 49 147 2.6 7.8 0.00 0.00 0.00 60 971.1
20260507075209 48 128 2.6 7.8 0.00 0.00 0.00 58 971.0
20260507074709 49 181 2.6 7.8 0.00 0.00 0.00 60 971.0
20260507074209 49 166 2.6 7.0 0.00 0.00 0.00 58 971.1
20260507073709 50 148 2.6 7.0 0.00 0.00 0.00 57 970.9
20260507073209 50 165 2.6 7.0 0.00 0.00 0.00 58 970.9
20260507072709 49 160 2.6 6.1 0.00 0.00 0.00 59 970.9
20260507072209 49 112 1.7 6.1 0.00 0.00 0.00 57 970.8
20260507071709 50 185 1.7 6.1 0.00 0.00 0.00 57 970.8
20260507071209 49 114 1.7 6.1 0.00 0.00 0.00 59 970.9
20260507070709 48 88 2.6 9.6 0.00 0.00 0.00 58 970.9
20260507070209 46 150 2.6 9.6 0.00 0.00 0.00 58 970.7
20260507065708 46 111 3.5 9.6 0.00 0.00 0.00 60 970.8
20260507065208 44 69 3.5 8.7 0.00 0.00 0.00 65 970.8
20260507064709 43 189 3.5 8.7 0.00 0.00 0.00 62 970.5
20260507064208 43 158 2.6 8.7 0.00 0.00 0.00 60 970.4
20260507063708 44 208 3.5 11.3 0.00 0.00 0.00 61 970.7
20260507063208 44 184 3.5 11.3 0.00 0.00 0.00 64 970.6
20260507062708 41 170 4.3 11.3 0.00 0.00 0.00 66 970.2
20260507062208 42 191 3.5 9.6 0.00 0.00 0.00 66 970.3
20260507061708 42 146 4.3 11.3 0.00 0.00 0.00 66 970.2
20260507061208 42 157 4.3 11.3 0.00 0.00 0.00 67 970.2
20260507060708 41 207 4.3 11.3 0.00 0.00 0.00 68 970.1
20260507060208 41 189 4.3 11.3 0.00 0.00 0.00 67 970.2
20260507055708 42 164 3.5 11.3 0.00 0.00 0.00 66 970.2
20260507055138 43 178 2.6 7.8 0.00 0.00 0.00 64 970.2
20260507054638 44 204 2.6 7.0 0.00 0.00 0.00 64 970.4
20260507054138 43 182 2.6 8.7 0.00 0.00 0.00 64 970.2
20260507053638 42 183 2.6 8.7 0.00 0.00 0.00 64 970.1
20260507053138 43 163 2.6 6.1 0.00 0.00 0.00 64 970.6
20260507052638 44 195 2.6 7.8 0.00 0.00 0.00 64 970.3
20260507052138 43 169 2.6 7.8 0.00 0.00 0.00 63 970.0
20260507051638 44 149 2.6 7.0 0.00 0.00 0.00 65 970.3
20260507051138 43 154 2.6 7.0 0.00 0.00 0.00 65 970.4
20260507050638 42 207 2.6 7.0 0.00 0.00 0.00 64 970.0
20260507050108 44 285 2.6 7.0 0.00 0.00 0.00 63 970.3
20260507045608 43 144 1.7 6.1 0.00 0.00 0.00 63 970.1
20260507045038 45 197 0.9 5.2 0.00 0.00 0.00 60 970.0
20260507044508 45 104 0.9 5.2 0.00 0.00 0.00 62 970.1
20260507043938 43 240 0.9 4.3 0.00 0.00 0.00 66 970.2
20260507043438 42 135 1.7 5.2 0.00 0.00 0.00 69 969.9
20260507042938 39 208 1.7 8.7 0.00 0.00 0.00 72 969.6
20260507042438 38 171 1.7 8.7 0.00 0.00 0.00 74 970.0
20260507041938 40 10 1.7 6.1 0.00 0.00 0.00 73 969.9
20260507041408 38 191 1.7 7.0 0.00 0.00 0.00 75 969.4
20260507040908 35 95 1.7 7.0 0.00 0.00 0.00 83 969.3
20260507040408 35 141 0.9 4.3 0.00 0.00 0.00 85 969.3
20260507035908 33 164 0.9 3.5 0.00 0.00 0.00 87 969.3
20260507035408 31 221 0.9 3.5 0.00 0.00 0.00 91 969.3
20260507034908 31 136 0.9 3.5 0.00 0.00 0.00 91 969.3
20260507034408 31 354 0.9 3.5 0.00 0.00 0.00 92 969.3
20260507033908 31 175 0.9 2.6 0.00 0.00 0.00 91 969.3
20260507033408 31 173 1.7 2.6 0.00 0.00 0.00 93 969.2
20260507032908 31 189 0.9 2.6 0.00 0.00 0.00 92 969.2
20260507032338 31 196 0.9 2.6 0.00 0.00 0.00 90 969.2
20260507031838 31 202 0.9 2.6 0.00 0.00 0.00 88 969.2
20260507031338 30 317 0.9 3.5 0.00 0.00 0.00 88 969.3
20260507030838 30 99 0.9 3.5 0.00 0.00 0.00 89 969.2
20260507030338 30 70 1.7 3.5 0.00 0.00 0.00 87 969.2
20260507025837 31 51 1.7 3.5 0.00 0.00 0.00 87 969.3
20260507025337 31 11 1.7 5.2 0.00 0.00 0.00 88 969.1
20260507024808 31 323 0.9 5.2 0.00 0.00 0.00 93 969.0
20260507024307 31 241 0.9 3.5 0.00 0.00 0.00 93 969.0
20260507023807 31 30 0.9 4.3 0.00 0.00 0.00 92 969.0
20260507023307 31 228 0.9 4.3 0.00 0.00 0.00 92 969.1
20260507022807 30 112 0.9 4.3 0.00 0.00 0.00 91 969.0
20260507022307 30 116 0.9 3.5 0.00 0.00 0.00 90 969.0
20260507021737 30 161 0.9 4.3 0.00 0.00 0.00 90 969.0
20260507021237 30 251 1.7 6.1 0.00 0.00 0.00 91 969.0
20260507020737 30 190 1.7 6.1 0.00 0.00 0.00 91 969.0
20260507020237 31 187 1.7 5.2 0.00 0.00 0.00 89 969.0
20260507015737 31 179 1.7 5.2 0.00 0.00 0.00 89 968.6
20260507015237 31 209 1.7 6.1 0.00 0.00 0.00 89 969.0
20260507014707 31 189 1.7 6.1 0.00 0.00 0.00 89 968.6
20260507014207 31 188 1.7 5.2 0.00 0.00 0.00 89 968.5
20260507013637 31 185 1.7 5.2 0.00 0.00 0.00 88 968.5
20260507013137 31 167 1.7 5.2 0.00 0.00 0.00 88 968.5
20260507012637 31 220 1.7 7.0 0.00 0.00 0.00 88 968.5
20260507012137 32 238 2.6 10.4 0.00 0.00 0.00 87 968.4
20260507011607 32 190 2.6 10.4 0.00 0.00 0.00 87 968.4
20260507011037 32 195 2.6 8.7 0.00 0.00 0.00 87 968.5
20260507010537 31 182 1.7 8.7 0.00 0.00 0.00 87 968.5
20260507010037 31 193 1.7 5.2 0.00 0.00 0.00 87 968.4
20260507005537 31 209 2.6 6.1 0.00 0.00 0.00 86 968.3
20260507005037 31 186 2.6 6.1 0.00 0.00 0.00 86 968.3
20260507004537 31 188 1.7 6.1 0.00 0.00 0.00 85 968.2
20260507004037 31 169 1.7 6.1 0.00 0.00 0.00 84 968.1
20260507003507 31 183 1.7 6.1 0.00 0.00 0.00 84 968.1
20260507003007 31 117 1.7 4.3 0.00 0.00 0.00 82 968.2
20260507002437 32 191 1.7 4.3 0.00 0.00 0.00 81 968.1
20260507001937 32 198 1.7 4.3 0.00 0.00 0.00 81 968.1
20260507001437 32 188 0.9 4.3 0.00 0.00 0.00 80 968.1
20260507000937 32 186 1.7 4.3 0.00 0.00 0.00 80 968.0
20260507000407 32 254 1.7 5.2 0.00 0.00 0.00 79 968.0
20260506235907 32 207 1.7 5.2 0.00 0.00 0.00 78 968.0
20260506235407 33 173 1.7 5.2 0.00 0.00 0.00 78 968.0
20260506234907 33 190 1.7 5.2 0.00 0.00 0.00 77 968.0
20260506234407 33 191 1.7 5.2 0.00 0.00 0.00 76 968.0
20260506233907 33 136 0.9 4.3 0.00 0.00 0.00 75 968.0
20260506233407 33 210 0.9 3.5 0.00 0.00 0.00 75 968.0
20260506232907 33 161 0.9 3.5 0.00 0.00 0.00 75 968.0
20260506232407 33 250 0.9 4.3 0.00 0.00 0.00 76 968.0
20260506231837 33 235 1.7 4.3 0.00 0.00 0.00 75 968.0
20260506231337 33 215 1.7 3.5 0.00 0.00 0.00 75 968.0
20260506230837 33 204 1.7 5.2 0.00 0.00 0.00 75 968.0
20260506230337 33 206 0.9 5.2 0.00 0.00 0.00 76 968.0
20260506225836 33 191 0.9 2.6 0.00 0.00 0.00 76 968.0
20260506225336 32 136 0.9 2.6 0.00 0.00 0.00 76 968.0
20260506224836 32 329 0.9 1.7 0.00 0.00 0.00 75 968.0
20260506224306 33 190 0.0 1.7 0.00 0.00 0.00 76 967.6
20260506223736 32 259 0.0 1.7 0.00 0.00 0.00 74 967.6
20260506223236 33 276 0.9 1.7 0.00 0.00 0.00 73 968.0
20260506222736 33 186 0.9 2.6 0.00 0.00 0.00 74 967.6
20260506222236 33 199 1.7 5.2 0.00 0.00 0.00 74 967.6
20260506221736 33 293 2.6 5.2 0.00 0.00 0.00 73 967.6
20260506221206 33 13 1.7 4.3 0.00 0.00 0.00 72 967.5
20260506220706 34 256 1.7 3.5 0.00 0.00 0.00 73 967.5
20260506220136 34 278 1.7 5.2 0.00 0.00 0.00 72 967.5
20260506215636 34 255 2.6 5.2 0.00 0.00 0.00 72 967.4
20260506215136 34 219 2.6 5.2 0.00 0.00 0.00 72 967.4
20260506214636 35 229 2.6 6.1 0.00 0.00 0.00 71 967.3
20260506214136 35 247 3.5 6.1 0.00 0.00 0.00 71 967.4
20260506213636 35 226 2.6 6.1 0.00 0.00 0.00 70 967.3
20260506213136 35 241 2.6 6.1 0.00 0.00 0.00 70 967.3
20260506212636 35 237 2.6 7.0 0.00 0.00 0.00 69 967.3
20260506212106 35 224 3.5 7.0 0.00 0.00 0.00 68 967.3
20260506211606 36 289 3.5 7.8 0.00 0.00 0.00 68 967.3
20260506211036 36 212 3.5 7.8 0.00 0.00 0.00 67 967.3
20260506210536 36 245 3.5 10.4 0.00 0.00 0.00 66 967.1
20260506210036 36 238 2.6 10.4 0.00 0.00 0.00 65 967.1
20260506205506 37 222 2.6 7.8 0.00 0.00 0.00 64 967.0
20260506205006 37 208 2.6 7.8 0.00 0.00 0.00 64 967.0
20260506204506 37 182 2.6 7.8 0.00 0.00 0.00 63 967.0
20260506204006 37 198 2.6 7.8 0.00 0.00 0.00 63 967.1
20260506203506 37 197 3.5 8.7 0.00 0.00 0.00 62 967.0
20260506203006 37 235 4.3 10.4 0.00 0.00 0.00 62 967.0
20260506202506 37 183 4.3 10.4 0.00 0.00 0.00 61 967.0
20260506202006 38 202 4.3 9.6 0.00 0.00 0.00 58 967.0
20260506201506 38 156 4.3 9.6 0.00 0.00 0.00 56 967.0
20260506201005 38 163 4.3 10.4 0.00 0.00 0.00 55 967.0
20260506200435 38 171 4.3 10.4 0.00 0.00 0.00 54 967.0
20260506195935 38 187 3.5 7.8 0.00 0.00 0.00 54 967.0
20260506195406 39 187 3.5 7.8 0.00 0.00 0.00 53 967.0
20260506194905 39 186 3.5 7.8 0.00 0.00 0.00 53 967.0
20260506194405 39 172 3.5 7.8 0.00 0.00 0.00 53 967.0
20260506193905 39 159 3.5 7.8 0.00 0.00 0.00 53 967.0
20260506193405 40 170 3.5 6.1 0.00 0.00 0.00 51 967.0
20260506192905 40 184 3.5 6.1 0.00 0.00 0.00 50 967.0
20260506192405 40 177 3.5 6.1 0.00 0.00 0.00 49 967.0
20260506191835 40 178 3.5 6.1 0.00 0.00 0.00 48 967.0
20260506191335 41 183 3.5 4.3 0.00 0.00 0.00 47 966.6
20260506190835 41 185 2.6 4.3 0.00 0.00 0.00 47 966.6
20260506190335 42 182 2.6 4.3 0.00 0.00 0.00 46 966.6
20260506185805 42 187 1.7 3.5 0.00 0.00 0.00 44 966.6
20260506185307 42 185 1.7 2.6 0.00 0.00 0.00 44 967.0
20260506184805 43 195 1.7 2.6 0.00 0.00 0.00 44 966.5
20260506184305 43 191 0.9 1.7 0.00 0.00 0.00 43 966.5
20260506183805 43 210 0.9 1.7 0.00 0.00 0.00 44 966.4
20260506183305 42 219 0.9 1.7 0.00 0.00 0.00 43 966.5
20260506182735 42 259 0.9 2.6 0.00 0.00 0.00 43 966.4
20260506182235 42 60 1.7 3.5 0.00 0.00 0.00 40 966.5
20260506181735 43 55 0.9 3.5 0.00 0.00 0.00 40 966.5
20260506181235 44 127 0.0 3.5 0.00 0.00 0.00 41 966.5
20260506180705 44 138 0.9 3.5 0.00 0.00 0.00 43 966.5
20260506180205 43 171 0.9 3.5 0.00 0.00 0.00 42 966.5
20260506175705 43 104 0.9 5.2 0.00 0.00 0.00 42 966.5
20260506175135 43 63 0.9 5.2 0.00 0.00 0.00 40 966.5
20260506174635 44 134 0.9 3.5 0.00 0.00 0.00 40 966.3
20260506174135 44 105 0.9 3.5 0.00 0.00 0.00 40 966.2
20260506173605 45 67 0.9 3.5 0.00 0.00 0.00 38 966.2
20260506173105 45 89 0.9 4.3 0.00 0.00 0.00 40 966.1
20260506172605 45 89 1.7 4.3 0.00 0.00 0.00 40 966.2
20260506172105 46 103 0.9 3.5 0.00 0.00 0.00 40 966.2
20260506171535 46 100 1.7 5.2 0.00 0.00 0.00 39 966.2
20260506171005 46 110 1.7 5.2 0.00 0.00 0.00 39 966.2
20260506170505 46 98 1.7 7.0 0.00 0.00 0.00 40 966.2
20260506170005 46 159 2.6 7.8 0.00 0.00 0.00 40 966.2
20260506165505 46 312 1.7 7.8 0.00 0.00 0.00 40 966.2
20260506165005 46 123 2.6 6.1 0.00 0.00 0.00 40 966.2
20260506164505 46 192 2.6 8.7 0.00 0.00 0.00 40 966.3
20260506164005 46 210 2.6 9.6 0.00 0.00 0.00 42 966.3
20260506163505 46 309 2.6 9.6 0.00 0.00 0.00 40 966.3
20260506163005 46 205 1.7 7.0 0.00 0.00 0.00 42 966.3
20260506162504 46 203 1.7 5.2 0.00 0.00 0.00 41 966.3
20260506162004 46 203 1.7 5.2 0.00 0.00 0.00 41 966.3
20260506161504 46 70 1.7 5.2 0.00 0.00 0.00 39 966.3
20260506161004 45 130 0.9 4.3 0.00 0.00 0.00 41 966.3
20260506160504 45 337 0.9 3.5 0.00 0.00 0.00 43 966.3
20260506160004 45 63 0.9 3.5 0.00 0.00 0.00 42 966.2
20260506155504 45 108 0.9 3.5 0.00 0.00 0.00 44 966.2
20260506155004 45 139 1.7 4.3 0.00 0.00 0.00 40 966.2
20260506154434 45 147 1.7 4.3 0.00 0.00 0.00 42 966.1
20260506153934 45 2 1.7 4.3 0.00 0.00 0.00 42 966.2
20260506153434 45 0 1.7 6.1 0.00 0.00 0.00 43 966.2
20260506152934 45 187 1.7 6.1 0.00 0.00 0.00 41 966.1
20260506152434 45 168 2.6 7.0 0.00 0.00 0.00 42 966.2
20260506151934 44 233 2.6 7.0 0.00 0.00 0.00 43 966.2
20260506151404 44 199 2.6 7.8 0.00 0.00 0.00 42 966.2
20260506150904 44 146 2.6 9.6 0.00 0.00 0.00 43 966.1
20260506150334 44 216 2.6 9.6 0.00 0.00 0.00 41 966.1
20260506145834 45 120 3.5 11.3 0.00 0.00 0.00 42 966.3
20260506145306 44 186 4.3 11.3 0.00 0.00 0.00 42 966.3
20260506144734 45 51 3.5 11.3 0.00 0.00 0.00 42 966.2
20260506144234 46 166 2.6 10.4 0.00 0.00 0.00 37 966.4
20260506143734 48 120 1.7 7.8 0.00 0.00 0.00 37 966.3
20260506143234 46 203 1.7 7.8 0.00 0.00 0.00 39 966.3
20260506142704 46 64 1.7 9.6 0.00 0.00 0.00 40 966.4
20260506142204 46 30 2.6 10.4 0.00 0.00 0.00 39 966.4
20260506141704 46 77 3.5 14.8 0.00 0.00 0.00 40 966.3
20260506141204 46 95 3.5 14.8 0.00 0.00 0.00 39 966.5
20260506140704 46 109 3.5 14.8 0.00 0.00 0.00 39 966.2
20260506140204 46 95 2.6 10.4 0.00 0.00 0.00 39 966.3
20260506135704 47 48 2.6 7.8 0.00 0.00 0.00 40 966.3
20260506135204 47 44 2.6 6.1 0.00 0.00 0.00 41 966.2
20260506134703 48 78 1.7 7.8 0.00 0.00 0.00 39 966.3
20260506134203 48 97 2.6 7.8 0.00 0.00 0.00 35 966.2
20260506133703 50 148 2.6 8.7 0.00 0.00 0.00 33 966.2
20260506133203 52 83 2.6 8.7 0.00 0.00 0.00 30 966.3
20260506132703 53 199 2.6 9.6 0.00 0.00 0.00 34 966.3
20260506132203 54 215 2.6 9.6 0.00 0.00 0.00 35 966.3
20260506131703 53 340 2.6 8.7 0.00 0.00 0.00 32 966.2
20260506131203 53 52 2.6 8.7 0.00 0.00 0.00 31 966.2
20260506130703 53 130 2.6 7.8 0.00 0.00 0.00 33 966.3
20260506130203 53 192 2.6 7.8 0.00 0.00 0.00 35 966.4
20260506125633 53 148 2.6 7.0 0.00 0.00 0.00 35 966.4
20260506125133 53 132 2.6 8.7 0.00 0.00 0.00 33 966.4
20260506124633 52 154 3.5 8.7 0.00 0.00 0.00 35 966.3
20260506124133 53 149 2.6 8.7 0.00 0.00 0.00 35 966.4
20260506123633 53 127 2.6 8.7 0.00 0.00 0.00 34 966.4
20260506123133 52 174 2.6 11.3 0.00 0.00 0.00 34 966.4
20260506122633 51 25 3.5 13.0 0.00 0.00 0.00 33 966.4
20260506122133 51 120 3.5 13.0 0.00 0.00 0.00 31 966.3
20260506121633 51 22 2.6 13.9 0.00 0.00 0.00 34 966.4
20260506121133 52 10 2.6 14.8 0.00 0.00 0.00 36 966.4
20260506120603 51 42 2.6 14.8 0.00 0.00 0.00 33 966.5
20260506120033 50 352 3.5 14.8 0.00 0.00 0.00 34 966.4
20260506115533 51 117 3.5 10.4 0.00 0.00 0.00 38 966.5
20260506115033 50 184 3.5 10.4 0.00 0.00 0.00 37 966.5
20260506114533 49 134 2.6 10.4 0.00 0.00 0.00 34 966.5
20260506114033 51 280 2.6 10.4 0.00 0.00 0.00 36 966.5
20260506113533 51 52 2.6 8.7 0.00 0.00 0.00 37 966.5
20260506113033 51 16 3.5 12.2 0.00 0.00 0.00 36 966.5
20260506112533 51 60 2.6 11.3 0.00 0.00 0.00 32 966.4
20260506112033 51 127 2.6 9.6 0.00 0.00 0.00 35 966.5
20260506111533 51 103 2.6 9.6 0.00 0.00 0.00 37 966.4
20260506111003 50 105 2.6 10.4 0.00 0.00 0.00 38 966.5
20260506110503 48 81 3.5 12.2 0.00 0.00 0.00 43 966.4
20260506110003 47 118 4.3 14.8 0.00 0.00 0.00 38 966.4
20260506105432 47 16 4.3 14.8 0.00 0.00 0.00 39 966.5
20260506104932 47 145 3.5 13.0 0.00 0.00 0.00 37 966.3
20260506104433 50 201 2.6 13.0 0.00 0.00 0.00 45 966.5
20260506103902 49 345 2.6 13.0 0.00 0.00 0.00 42 966.5